Regional Weather Roundup
Issued by NWS Huntsville, AL

Home | Current Version | Previous Version | Text Only | Print | Product List | Glossary On
Versions: 1 2 3 4 5 6 7 8 9 10 11 12 13 14 15 16 17 18 19 20 21 22 23 24 25 26 27 28 29 30 31 32 33 34 35 36 37 38 39 40 41 42 43 44 45 46 47 48 49 50
000
ASUS44 KHUN 260610
RWRHUN

WEATHER ROUNDUP FOR THE TENNESSEE VALLEY
NATIONAL WEATHER SERVICE HUNTSVILLE AL
100 AM CDT MON JUN 26 2017

ALZ001>004-260700-
NORTHWEST ALABAMA

CITY           SKY/WX    TMP DP  RH WIND       PRES   REMARKS
SHOALS AIRPORT CLEAR     61  56  83 CALM      30.19F
6HR MIN TEMP:  60; 6HR MAX TEMP:  82;

$$

ALZ005>007-016-260700-
NORTH CENTRAL ALABAMA

CITY           SKY/WX    TMP DP  RH WIND       PRES   REMARKS
DECATUR AP     CLEAR     60  57  89 NW3       30.18F
6HR MIN TEMP:  59; 6HR MAX TEMP:  78;

HUNTSVILLE AP  PTCLDY    62  59  90 CALM      30.18F
6HR MIN TEMP:  61; 6HR MAX TEMP:  81;

MERIDIANVILLE  CLEAR     59  57  94 CALM      30.19S
REDSTONE ARSN  PTCLDY    60  58  90 CALM      30.17F
VINEMONT AP    FAIR      56  55  98 CALM      30.21F
$$

ALZ008>010-260700-
NORTHEAST ALABAMA

CITY           SKY/WX    TMP DP  RH WIND       PRES   REMARKS
ALBERTVILLE    CLEAR     61  61 100 CALM      30.18F
FORT PAYNE     NOT AVBL
SCOTTSBORO AP  CLEAR     59  59 100 CALM      30.20S
SCOTTSBORO HCN   N/A     59 N/A N/A MISG        N/A
VALLEY HEAD      N/A     55 N/A N/A MISG        N/A
$$

TNZ076-096-097-260700-
SOUTHEASTERN MIDDLE TENNESSEE

CITY           SKY/WX    TMP DP  RH WIND       PRES   REMARKS
TULLAHOMA      CLEAR     55  54  94 CALM      30.20F
WINCHESTER     CLEAR     55  54  94 CALM        N/A
$$

...SURROUNDING SITES...

CITY           SKY/WX    TMP DP  RH WIND       PRES   REMARKS
ATLANTA        PTCLDY    66  61  84 NW8       30.15S
ANNISTON       CLEAR     62  60  93 CALM      30.17F
BIRMINGHAM     CLEAR     63  62  97 CALM      30.20F
CHATTANOOGA    CLEAR     61  56  83 S3        30.18F
CORINTH        FAIR      61  59  94 CALM      30.18F
DALTON         CLEAR     59  57  94 CALM      30.18S
GADSDEN        CLEAR     60  59  96 CALM      30.18F
GOLDEN TRNGL   CLEAR     63  57  82 CALM      30.14S
JACKSON TN     CLEAR     61  58  90 CALM      30.18F
MEMPHIS        CLEAR     67  58  72 S5        30.18F
NASHVILLE      CLEAR     63  56  78 CALM      30.17F
OXFORD MS      FAIR      59  57  94 CALM      30.21S
ROME           PTCLDY    61  61 100 CALM      30.17S FOG
SAVANNAH       CLEAR     59  57  94 CALM      30.18S
SELMER         CLEAR     59  57  94 CALM      30.18F
TUPELO         CLEAR     64  60  87 CALM      30.18F
TUSCALOOSA     CLEAR     64  64 100 CALM      30.17F
$$

...GULF COAST WEATHER...

CITY           SKY/WX    TMP DP  RH WIND       PRES   REMARKS
GULFPORT       CLEAR     74  67  78 N3        30.12F
PASCAGOULA     CLEAR     73  66  78 CALM      30.12F
MOBILE         CLEAR     72  65  78 N6        30.14F
GULF SHORES    PTCLDY    73  67  83 NE8       30.12S
PENSACOLA      PTCLDY    74  65  73 N6        30.11S
DESTIN         MOCLDY    79  75  87 N8        30.11R
PANAMA CITY    DRIZZLE   76  74  93 N5        30.10R
APPALACHICOLA  MOCLDY    75  75 100 N3        30.08F
$$




USA.gov is the U.S. government's official web portal to all federal, state and local government web resources and services.